Regional Weather Roundup
Issued by NWS

Home | Current Version | Previous Version | Graphics & Text | Print | Product List | Glossary On
Versions: 1 2 3 4 5 6 7 8 9 10 11 12 13 14 15 16 17 18 19 20 21 22 23 24 25 26 27 28 29 30 31 32 33 34 35 36 37 38 39 40 41 42 43 44 45 46 47 48 49 50
000
ASUS43 KMKX 302311
RWRWI

WISCONSIN REGIONAL WEATHER ROUNDUP
NATIONAL WEATHER SERVICE MILWAUKEE/SULLIVAN WI
600 PM CDT FRI SEP 30 2016

NOTE: "FAIR" INDICATES FEW OR NO CLOUDS BELOW 12,000 FEET WITH NO
SIGNIFICANT WEATHER AND/OR OBSTRUCTIONS TO VISIBILITY.

WIZ001-002-006>008-014>016-023>028-010000-
NORTHWEST WISCONSIN

CITY           SKY/WX    TMP DP  RH WIND       PRES   REMARKS
SUPERIOR ARPT  CLOUDY    55  52  92 E10G16    30.33F
ASHLAND        CLOUDY    54  52  93 NE14      30.33F
HAYWARD        CLEAR     60  52  74 N14       30.29S
SIREN          CLEAR     65  49  56 NE8       30.26F
CUMBERLAND     CLEAR     64  48  55 N9        30.25S
RICE LAKE      CLEAR     68  52  56 N13       30.25S
CHETEK         NOT AVBL
LADYSMITH      CLEAR     69  50  51 E8        30.26R
EAU CLAIRE     CLOUDY    69  50  50 NE3       30.20S
MENOMONIE      CLOUDY    73  47  39 NE5       30.21S
NEW RICHMOND   CLEAR     70  47  44 NE8       30.22F
OSCEOLA        CLEAR     69  50  50 N6        30.25F
$$

WIZ003>005-009-010-017-018-010000-
NORTH CENTRAL WISCONSIN

CITY           SKY/WX    TMP DP  RH WIND       PRES   REMARKS
MANITOWISH WTR NOT AVBL
ARBOR VITAE    CLEAR     65  46  50 CALM      30.28R
WOODRUFF       CLEAR     65  46  50 CALM      30.28R
RHINELANDER    CLOUDY    64  50  60 NE5       30.27S
EAGLE RIVER    CLOUDY    64  44  46 E8        30.28S
LAND O LAKES   CLEAR     64  52  64 NE3       30.31R
PHILLIPS       CLEAR     66  49  52 NE9       30.26R
TOMAHAWK       CLOUDY    64  49  57 NE5       30.26S
MEDFORD        CLOUDY    65  51  60 NE7       30.23S
MERRILL        CLOUDY    66  53  61 E7        30.25R
$$

WIZ029-030-035-036-043>047-010000-
CENTRAL WISCONSIN

CITY           SKY/WX    TMP DP  RH WIND       PRES   REMARKS
WAUSAU         MOCLDY    66  52  60 E8        30.22R
MOSINEE        CLOUDY    63  55  77 NE6       30.23S
MARSHFIELD     CLOUDY    67  54  63 E6        30.21S
STEVENS POINT  CLOUDY    61  52  71 E8        30.22S
WAUPACA        CLOUDY    61  59  92 NE5       30.22S
WAUTOMA        LGT RAIN  59  57  94 NE9       30.20F
WISC RAPIDS    CLOUDY    64  55  72 E7        30.23R
CAMP DOUGLAS   MOCLDY    61  56  84 E6        30.21S
$$

WIZ011>013-019>022-031-037>040-048>050-010000-
NORTHEAST WISCONSIN

CITY           SKY/WX    TMP DP  RH WIND       PRES   REMARKS
ANTIGO         MOCLDY    62  52  70 NE7       30.25S
SHAWANO        CLOUDY    64  55  71 NE6       30.22F
OCONTO         NOT AVBL
STURGEON BAY   CLOUDY    62  56  80 NE10      30.22S
GREEN BAY      CLOUDY    63  58  83 NE17G25   30.20F
MANITOWOC      LGT RAIN  62  59  90 NE8       30.18F
APPLETON       CLOUDY    61  57  88 NE14G20   30.19F
CLINTONVILLE   CLOUDY    63  52  67 NE10      30.22S
OSHKOSH        LGT RAIN  61  58  90 NE13      30.18F
$$

WIZ032>034-041-042-053>061-010000-
SOUTHWEST WISCONSIN

CITY           SKY/WX    TMP DP  RH WIND       PRES   REMARKS
LA CROSSE      CLOUDY    66  57  72 E3        30.20R
SPARTA         CLOUDY    62  56  80 E8        30.21S
VIROQUA        CLOUDY    58  58  99 NE6       30.21S
BOSCOBEL       CLOUDY    63  58  83 NE5       30.18S
PRAIRIE DU CHI CLOUDY    62  56  82 N6        30.17S
PLATTEVILLE    CLOUDY    60  60  99 NE9       30.17R
$$

WIZ056-057-062-063-064-067-068-010000-
SOUTH CENTRAL WISCONSIN

CITY           SKY/WX    TMP DP  RH WIND       PRES   REMARKS
REEDSBURG      NOT AVBL
BARABOO/DELLS  CLOUDY    58  57  95 NE8       30.19R FOG
LONE ROCK      LGT RAIN  61  58  90 NE9       30.18S FOG
MINERAL POINT  CLOUDY    61  59  94 NE5       30.17S
MADISON        CLOUDY    62  56  80 NE13      30.16R
MIDDLETON      CLOUDY    63  58  83 NE10G17   30.17S
WATERTOWN      CLOUDY    60  59  96 N6        30.14F
MONROE         CLOUDY    59  57  94 N12       30.14S
JANESVILLE     CLOUDY    63  57  82 NE15G21   30.13S
$$

WIZ051-052-058>065-066-070>072-010000-
SOUTHEAST WISCONSIN

CITY           SKY/WX    TMP DP  RH WIND       PRES   REMARKS
MILWAUKEE      CLOUDY    61  58  90 N9        30.13F
WAUKESHA       DRIZZLE   57  55  94 NE12      30.16S FOG
MILWAUKEE/TIMM CLOUDY    61  55  82 NE10G17   30.14F
RACINE         LGT RAIN  63  58  83 NE9       30.13F
BURLINGTON     CLOUDY    59  57  91 N12       30.12F
KENOSHA        CLOUDY    62  59  90 NE12      30.11F
FOND DU LAC    CLOUDY    61  58  90 NE12      30.18F
SHEBOYGAN      LGT RAIN  62  58  86 NE18      30.17S
WEST BEND      CLOUDY    68  68 100 N6        30.15F
JUNEAU         CLOUDY    60  56  85 NE8       30.17F
$$

LSZ147-162-010000-
LAKE SUPERIOR

STATION/POSITION TIME  TEMP    WIND        PRES    WAVE
                       AIR SEA DIR/SP/G            HT/PER
                 (UTC) (F)     (DEG/KT/KT) (MB)    (FT/S)
W MID LAKE BUOY  2250   53 56   50/ 14/ 16 1027.1F   2/ 5
DEVILS ISLAND    2300   52      50/ 13/ 14 1027.8F
SAXON HARBOR     2240   56     360/ 11/ 13 1026.4F
$$

LMZ867-665-643>646-010000-
LAKE MICHIGAN

STATION/POSITION TIME  TEMP    WIND        PRES    WAVE
                       AIR SEA DIR/SP/G            HT/PER
                 (UTC) (F)     (DEG/KT/KT) (MB)    (FT/S)
CHAMBERS ISLAND  2200   63      30/ 14/ 19 1023.4S
S GREEN BAY BUOY 2200   63 62   60/ 17/ 21 1022.7
N MID LAKE BUOY  2250   64 65   70/ 21/ 25 1022.9R   4/ 5
NORTHPORT PIER   2200   64      50/ 13/ 17 1024.0S
SISTER BAY       2223   64      40/  8/ 11   N/A
KEWAUNEE LAKESHO 2200   62      30/ 10/ 16 1022.2F
SHEBOYGAN LAKESH 2300   61      30/ 14/ 15 1021.2F
PORT WASHINGTON  2200   61      40/  9/ 13 1022.0
ATWATER BUOY     2200   58      30/ 10/ 14 1020.8R
MILWAUKEE LAKESH 2210   58      10/  9/ 11   N/A
S MID LAKE BUOY  2250   64 68   70/ 21/ 27 1018.4S   4/ 5
KENOSHA   LAKESH 2300   63      50/ 17/ 19 1019.3F
$$

TC  - TEMPERATURE IN CELSIUS
VSB - VISIBILITY IN STATUTE MILES
WCI - WIND CHILL INDEX
HX  - HEAT INDEX




USA.gov is the U.S. government's official web portal to all federal, state and local government web resources and services.